Regional Weather Roundup
Issued by NWS

Home | Current Version | Previous Version | Text Only | Print | Product List | Glossary Off
Versions: 1 2 3 4 5 6 7 8 9 10 11 12 13 14 15 16 17 18 19 20 21 22 23 24 25 26 27 28 29 30 31 32 33 34 35 36 37 38 39 40 41 42 43 44 45 46 47 48 49 50

000
ASUS45 KBOU 110710
RWRCO

WEATHER ROUNDUP FOR COLORADO
NATIONAL WEATHER SERVICE DENVER/BOULDER CO
1200 AM MST MON DEC 11 2017

NOTE: "FAIR" INDICATES FEW OR NO CLOUDS BELOW 12000 FEET WITH NO
SIGNIFICANT WEATHER AND/OR OBSTRUCTIONS TO VISIBILITY.

COZ001>005-013-030-031-110800-
...NORTHWEST COLORADO...

CITY           SKY/WX    TMP DP  RH WIND       PRES   REMARKS
CRAIG          FAIR       6   1  80 NW3       30.56R
HAYDEN         FAIR      16   7  67 S6        30.55R WCI   7
MEEKER         FAIR      15   3  59 NE5       30.54S WCI   8
RABBIT EARS PA FAIR      23   3  42 W8        30.55S WCI  14
STEAMBOAT SPGS FAIR      14   7  75 CALM      30.55R
WALDEN         FAIR       9   0  66 SE8       30.53S WCI  -4
$$

COZ006>008-011-110800-
...WEST CENTRAL VALLEYS...

CITY           SKY/WX    TMP DP  RH WIND       PRES   REMARKS
GRAND JUNCTION FAIR      26   2  35 E5        30.54S WCI  20
MONTROSE       FAIR      19   0  43 SE12      30.58R WCI   7
EAGLE          FAIR      10   6  84 SE6       30.62F WCI   0
RIFLE          FAIR      20   2  45 CALM      30.56S
DELTA          FAIR      19   1  45 CALM      30.58R
NUCLA          FAIR      27  -9  20 CALM      30.58R
$$

COZ017>023-064>068-110800-
...SOUTHWEST COLORADO...

CITY           SKY/WX    TMP DP  RH WIND       PRES   REMARKS
DURANGO        FAIR      14  -2  49 NE5       30.48F WCI   6
CORTEZ         FAIR      12  -1  56 E8        30.51F WCI   0
PAGOSA SPRINGS FAIR      22  -5  31 CALM      30.50F
TELLURIDE      FAIR      31 -11  16 CALM      30.58R
WOLF CREEK PAS FAIR      30 -11  16 NW3       30.65S
$$

COZ009-010-012-014-032>034-037-058>063-110800-
...CENTRAL COLORADO...

CITY           SKY/WX    TMP DP  RH WIND       PRES   REMARKS
ASPEN          FAIR      20   2  45 SW8       30.54F WCI  10
BUENA VISTA    FAIR      25 -10  21 E6        30.51F WCI  18
COPPER MTN     NOT AVBL
BERTHOUD PASS  FAIR      18   5  57 NW23G29   30.55R WCI   0
COTTONWOOD PAS FAIR      39 -17   9 W7        30.54F
GUNNISON       NOT AVBL
KREMMLING      FAIR       3   0  85 CALM      30.63R
LEADVILLE      FAIR      15 -10  32 NE6       30.54F WCI   6
MONARCH PASS   FAIR      28 -13  16 W9        30.71S WCI  20
SALIDA         FAIR      28  -3  26 W12       30.59S WCI  17
SUNLIGHT       FAIR      30 -18  11 NW6       30.62F WCI  24
WILKERSON PASS FAIR      32 -15  12 NW14G22   30.56F WCI  22
$$

COZ069>075-110800-
...SAN LUIS VALLEY/SANGRE DE CRISTO MOUNTAINS...

CITY           SKY/WX    TMP DP  RH WIND       PRES   REMARKS
ALAMOSA        FAIR       7  -8  50 CALM      30.52R
DEL NORTE      FAIR      21  -8  27 W14       30.52F WCI   8
LA VETA PASS   FAIR      27 -11  18 SW20        N/A  WCI  13
SAGUACHE       FAIR      25  -9  22 N12       30.53R WCI  14
$$

COZ035-036-038>040-110800-
...NORTHERN COLORADO FRONT RANGE...

CITY           SKY/WX    TMP DP  RH WIND       PRES   REMARKS
DENVER INTL AP FAIR      40  -4  15 SW12      30.31S
DMNS CITY PARK NOT AVBL
AURORA         CLEAR     36  -3  18 S12       30.32F
FRONT RANGE AP FAIR      44  -4  13 SW12      30.33S
ERIE MUNI ARPT FAIR      23  10  57 CALM      30.36S
BOULDER MUN AP FAIR      41   1  19 NW5       30.30S
CENTENNIAL     FAIR      38   0  20 S3        30.33F
BROOMFIELD     FAIR      52  -4  10 W15       30.31S
FORT COLLINS   FAIR      29  12  49 E5        30.32R WCI  24
LONGMONT       FAIR      28  13  52 CALM      30.33R
$$

COZ041-046-047-076>085-087-088-110800-
...PIKES PEAK/PALMER DIVIDE AND SOUTHERN FOOTHILLS...

CITY           SKY/WX    TMP DP  RH WIND       PRES   REMARKS
COLO. SPRINGS  FAIR      37  -4  17 N10       30.36S
A. F. ACADEMY  FAIR      28  -6  22 N10       30.37S WCI  19
SCHRIEVER AFB  FAIR      43  -7  12 N8        30.36S
CHEYENNE MTN   FAIR      50  -7   9 CALM      30.33R
ELLICOTT         N/A    N/A N/A N/A CALM      30.35R
FALCON         FAIR      37  -9  14 NW8       30.38S
FORT CARSON    FAIR      34  -2  21 N13       30.34S WCI  25
LIMON          FAIR      31  -4  22 N6        30.32F WCI  25
MONUMENT HILL  FAIR      36  -6  17 SW10      30.39F
CANON CITY     FAIR      43  -2  15 W17       30.35S
WALSENBURG     NOT AVBL
TRINIDAD       FAIR      36   4  26 W15       30.35F
$$

COZ042>045-048>051-090-091-110800-
...NORTHEAST COLORADO...

CITY           SKY/WX    TMP DP  RH WIND       PRES   REMARKS
GREELEY ARPT   FAIR      18   4  54 NW3       30.34R
AKRON          FAIR      34  -2  21 W13       30.29F WCI  25
BURLINGTON     FAIR      33   2  26 W10       30.27F WCI  25
WRAY           FAIR      30   1  29 W7        30.26F WCI  23
YUMA           FAIR      27   1  33 W9        30.27F WCI  17
STERLING       FAIR      21   3  45 S5        30.30R WCI  15
HOLYOKE        FAIR      37   5  25 W14       30.25S
FORT MORGAN    FAIR      28   1  31 W8        30.31S WCI  19
$$

COZ086-089-092>099-110800-
...SOUTHEAST COLORADO...

CITY           SKY/WX    TMP DP  RH WIND       PRES   REMARKS
PUEBLO         FAIR      18  -1  43 W3        30.33F
LA JUNTA       FAIR      31   3  30 W9        30.32S WCI  23
LAMAR          FAIR      25   9  50 S6        30.28F WCI  18
SPRINGFIELD      N/A     29   3  33 W9        30.28F WCI  20
$$



USA.gov is the U.S. government's official web portal to all federal, state and local government web resources and services.